Theta_e
337 338 340 340 336 328 330 334 333 335 333 332 333 333 335 336 334 333 340 339 336 335 337 336 334 335 335 331 328 328 330 331 331 333 335 335 334 333 332 331 329 327 325 324 327 327 330 332 333
336 337 338 339 332 329 330 330 335 334 333 335 334 334 335 337 338 340 340 340 337 338 339 336 334 334 334 333 332 334 335 335 336 335 335 335 333 331 328 326 324 323 322 321 321 324 329 328 327
337 338 338 334 335 330 331 332 333 334 335 337 337 336 335 336 338 338 340 340 339 339 339 337 334 332 334 335 333 332 330 332 335 334 334 333 331 327 324 318 314 313 310 310 314 315 319 327 328
336 338 337 337 341 338 329 332 336 336 336 336 337 337 339 337 337 338 341 340 338 336 335 336 333 332 333 334 333 330 328 328 331 333 333 330 327 324 319 316 317 315 311 311 312 313 314 319 326
336 337 337 339 339 340 336 335 335 336 335 336 337 338 340 341 342 341 340 340 340 332 334 336 330 330 333 334 332 329 324 327 331 332 330 327 325 324 318 319 320 320 317 317 320 319 320 317 317
334 335 340 339 339 337 339 338 337 335 336 338 338 338 338 342 338 334 332 333 336 328 326 328 328 332 335 333 330 327 326 323 322 325 325 323 324 324 318 320 321 321 320 318 325 324 320 321 323
334 335 340 338 338 339 339 340 338 338 338 338 339 340 330 342 336 327 327 326 326 324 324 325 327 332 335 331 328 327 326 324 321 316 323 322 320 319 320 320 322 323 320 321 318 319 319 319 322
335 336 338 337 337 338 338 340 339 340 340 340 341 339 331 331 327 326 325 323 321 319 321 322 326 333 334 331 328 327 325 324 321 313 319 321 320 319 320 320 322 321 320 320 319 319 318 317 317
336 335 338 338 336 336 338 339 339 338 341 338 336 340 328 324 324 324 324 322 318 316 319 321 326 332 331 329 329 326 324 323 318 310 313 317 317 318 320 320 320 320 319 318 318 318 318 317 319
334 331 335 336 336 335 338 338 339 340 339 335 331 333 325 324 323 323 321 318 315 313 315 318 328 333 332 329 325 324 323 322 316 312 314 315 312 318 319 319 318 317 316 318 318 318 318 318 320
332 334 333 337 337 338 339 339 340 338 339 332 327 326 325 324 325 324 320 316 312 312 314 314 327 328 330 326 325 324 322 320 317 315 312 311 310 314 318 317 315 316 317 318 318 318 317 318 319
334 333 336 337 337 338 339 340 340 340 340 335 331 328 325 325 325 323 320 315 312 312 312 312 316 327 326 325 325 324 322 319 318 317 313 311 311 316 317 316 316 318 318 318 316 314 310 316 319
334 335 335 337 338 338 340 340 340 340 340 331 327 326 327 326 325 325 323 317 313 311 311 313 313 324 327 326 325 322 320 320 319 318 315 311 311 314 315 314 314 316 316 313 314 310 310 312 318
335 335 335 336 337 338 339 340 340 339 340 330 329 329 329 329 328 327 324 318 315 311 311 312 312 313 324 325 322 319 320 319 318 319 318 312 311 312 314 312 312 312 312 312 311 308 309 311 316
335 334 333 337 340 340 341 342 341 338 338 331 328 330 330 330 329 328 326 320 318 312 310 310 310 311 314 317 317 320 319 317 320 321 319 314 310 309 310 311 310 309 312 312 308 308 309 312 315
337 334 335 336 339 340 339 341 341 335 333 329 329 330 331 330 329 329 329 324 321 317 311 310 309 311 314 317 319 320 320 320 321 321 319 317 310 308 309 309 309 311 311 308 308 309 310 311 311
331 335 338 337 336 339 337 339 339 338 334 330 330 330 331 329 329 329 329 328 325 320 318 310 309 312 316 318 319 321 320 321 321 321 320 319 314 311 309 309 310 311 311 308 308 310 310 310 310
332 336 335 338 336 338 340 337 341 341 340 339 331 331 330 330 331 330 330 330 330 323 323 315 310 313 317 319 320 321 320 321 321 321 320 319 317 317 315 312 310 310 311 308 308 310 310 310 314
332 336 336 335 335 337 337 338 337 342 341 341 340 333 329 330 331 330 331 331 331 329 323 325 311 311 314 318 321 320 321 321 320 320 321 319 319 318 317 317 311 310 311 311 308 309 310 310 315
335 336 334 334 335 336 333 335 338 340 341 341 341 339 334 331 330 331 331 332 332 332 326 328 319 310 312 315 319 320 321 321 322 321 321 319 319 319 318 318 314 311 311 313 310 310 311 311 311
333 332 333 333 336 336 334 333 340 340 341 341 341 341 339 336 333 332 332 333 333 333 329 329 328 315 311 313 315 317 320 321 322 321 320 320 320 320 318 318 316 312 312 313 312 312 311 312 312
331 328 334 336 333 336 331 333 333 341 340 340 340 340 340 340 339 337 334 333 334 334 331 329 331 324 312 312 314 317 320 322 322 321 321 320 319 320 318 318 317 312 313 313 314 313 312 311 311
331 331 334 335 334 333 336 333 335 338 338 335 339 341 340 340 339 339 338 336 336 334 333 330 331 327 318 312 312 314 320 321 320 321 319 320 319 319 319 318 317 314 313 313 314 313 313 313 313
332 334 326 331 331 336 335 335 335 337 334 334 334 335 335 338 340 339 339 337 335 335 335 332 332 329 323 314 312 312 314 313 316 320 319 320 319 319 319 318 317 317 314 314 314 314 313 313 313
328 327 330 333 333 336 334 338 332 332 333 333 333 334 333 336 337 339 339 338 334 334 336 334 333 331 326 319 315 314 314 312 315 317 320 321 321 319 319 319 318 317 317 314 315 314 314 313 313
331 329 331 337 334 332 335 338 333 331 332 333 333 334 334 334 337 337 337 336 338 335 328 333 333 332 327 323 319 317 318 316 315 315 317 317 316 318 318 317 317 317 317 316 314 314 314 314 313
333 332 329 330 330 329 329 332 328 333 333 332 334 335 335 335 335 337 338 337 337 335 335 335 334 331 328 325 322 320 320 319 318 317 318 319 318 319 319 318 318 318 317 317 316 315 315 315 314
331 330 331 327 333 335 331 333 331 332 333 332 333 334 333 335 335 337 338 338 338 336 337 335 333 334 329 326 323 322 322 320 320 320 320 320 320 320 320 320 318 318 319 318 317 317 316 316 315
331 332 332 327 328 333 336 331 325 331 330 330 333 333 333 335 334 335 337 338 336 335 336 336 335 334 330 326 323 323 323 322 321 321 321 321 321 321 321 320 319 317 318 318 318 317 317 317 317
330 331 329 329 332 331 330 331 331 330 330 332 333 333 333 333 333 334 336 337 334 333 336 336 335 334 331 327 324 324 323 322 321 321 321 321 321 321 320 319 318 317 317 318 319 318 318 318 318
Wind_Speed
14 15 8 5 4 6 3 5 2 2 4 6 11 6 10 8 2 2 12 9 9 7 11 9 6 4 5 5 6 6 7 8 8 8 7 7 7 8 9 11 12 12 12 11 10 9 10 11 11
13 10 7 4 5 4 4 5 4 4 19 25 22 15 12 3 8 11 12 9 6 7 8 8 8 7 6 5 6 7 8 8 8 7 6 6 8 8 9 11 12 13 14 13 11 7 8 10 12
12 9 6 4 3 3 1 2 8 11 10 2 5 9 5 4 6 5 10 7 7 7 6 6 7 7 6 5 7 9 10 10 9 8 7 7 7 8 10 11 12 12 10 10 9 8 7 8 8
4 3 9 5 3 3 4 3 12 13 13 15 14 7 8 8 5 9 10 9 7 5 3 3 4 5 4 3 6 10 14 10 6 5 5 4 6 8 11 11 14 15 12 12 9 6 6 7 7
7 8 6 4 6 4 7 2 3 5 5 15 14 7 5 10 12 13 12 10 8 5 2 0 3 4 4 5 7 12 14 9 7 6 5 6 6 8 9 11 15 14 12 10 10 9 9 7 8
7 5 5 4 3 4 3 6 5 9 15 18 17 12 5 13 14 14 12 9 7 2 2 2 1 3 3 4 6 11 14 13 9 7 7 7 6 7 6 7 10 10 8 8 10 8 7 7 7
5 4 4 4 1 3 4 3 3 4 8 4 10 5 7 18 12 12 8 5 2 3 3 2 3 1 2 2 6 9 11 13 15 10 6 5 6 8 5 3 6 8 9 10 11 7 6 5 4
6 6 3 4 5 4 4 3 6 2 3 10 9 5 7 20 15 11 6 0 6 8 8 8 4 3 1 2 6 7 10 14 17 10 5 7 8 6 6 7 6 10 10 10 11 9 9 6 4
6 4 2 6 6 4 6 4 3 1 11 5 3 18 21 20 14 7 1 3 6 8 9 9 4 7 4 3 1 5 9 15 15 10 4 6 8 8 9 10 11 12 14 13 11 10 11 9 3
3 4 8 6 6 4 11 7 12 7 6 12 20 21 21 18 14 5 1 4 7 8 8 8 3 8 6 4 1 4 7 14 12 11 6 6 6 6 8 11 12 13 10 8 8 8 9 7 4
4 4 6 7 9 16 11 10 6 19 3 23 30 26 21 16 9 3 6 8 9 7 6 5 5 6 8 5 2 3 7 12 9 10 10 8 7 6 8 10 11 8 7 9 10 10 9 7 6
3 2 10 12 16 18 13 9 5 4 6 22 25 24 21 15 5 5 7 7 7 6 5 2 7 9 9 7 7 7 9 10 10 10 12 10 9 5 7 11 10 9 10 13 13 13 10 7 7
3 1 10 17 25 18 15 12 9 13 12 23 23 20 15 10 6 6 5 5 6 6 5 2 5 13 13 11 11 11 9 8 9 10 13 13 11 7 9 12 12 11 14 16 15 15 11 6 7
1 4 9 16 19 18 15 5 12 11 21 26 24 19 15 13 10 10 6 4 6 6 5 3 3 9 14 14 12 9 7 7 7 10 16 13 11 9 10 12 12 13 13 17 17 16 12 9 7
4 4 4 8 14 6 17 2 6 20 27 28 24 20 17 16 14 11 7 5 6 6 5 4 3 5 7 7 6 7 5 5 5 10 16 14 11 11 11 12 13 13 14 16 18 13 11 9 8
4 4 4 5 12 11 10 8 11 26 30 30 28 25 22 20 18 15 12 9 7 6 5 5 5 6 8 7 6 3 2 2 5 7 13 15 12 11 10 12 12 13 16 17 15 13 10 8 8
6 2 3 2 12 5 6 6 14 32 28 29 31 29 26 24 24 22 18 13 8 7 6 6 6 7 8 9 7 7 5 5 6 7 11 14 13 13 14 14 14 14 17 16 16 14 13 10 7
5 2 4 5 6 7 9 13 7 33 31 28 30 31 31 30 30 25 22 18 13 8 7 6 6 8 9 8 8 11 10 7 6 7 10 13 11 14 16 17 15 14 15 16 15 14 12 11 6
4 2 5 2 6 7 10 11 7 27 27 23 25 32 35 37 32 29 25 21 17 13 10 7 6 7 8 8 9 10 11 8 7 7 8 10 10 12 15 18 17 15 14 16 17 15 13 10 5
4 2 5 5 3 2 1 3 7 21 32 24 21 24 34 36 35 33 30 27 23 16 12 10 7 6 8 10 11 11 13 12 9 8 7 8 10 11 14 17 18 15 12 12 16 16 15 15 12
3 6 5 4 2 3 1 4 6 1 9 19 19 20 31 39 40 37 38 35 28 21 13 11 9 8 8 9 11 14 12 15 11 9 8 9 10 10 12 16 18 15 11 11 13 16 16 14 13
4 8 4 4 3 1 3 4 6 3 6 12 20 30 29 37 41 44 43 40 33 24 13 14 11 8 7 9 10 13 12 13 12 9 11 11 11 9 10 14 17 14 11 11 12 13 13 14 13
2 8 4 3 3 2 4 3 7 1 4 7 21 32 31 33 36 46 47 45 34 25 16 15 14 11 8 8 10 10 12 12 12 13 12 11 10 9 9 12 14 13 10 11 11 10 11 12 14
8 6 6 4 3 4 3 3 5 3 4 5 7 13 23 33 38 40 42 43 38 27 22 18 18 13 9 6 7 9 11 11 12 14 13 11 10 10 11 13 13 13 13 9 9 12 10 11 11
7 5 3 5 5 5 2 1 8 6 8 11 10 22 23 15 26 39 40 37 37 30 21 23 21 17 11 5 3 6 7 8 8 9 13 14 14 14 13 15 14 12 13 11 10 12 13 13 11
2 4 5 4 2 5 3 3 5 4 9 7 7 10 16 17 18 27 35 33 27 25 3 33 26 19 14 7 4 4 6 6 7 8 9 10 10 11 12 15 13 13 13 13 10 11 14 16 13
3 2 5 5 2 3 3 6 9 1 5 12 7 13 14 16 17 24 30 30 34 30 10 13 28 21 14 11 10 6 6 7 8 8 9 9 10 11 12 13 13 15 15 14 14 15 16 16 16
2 3 3 3 1 3 5 4 5 4 2 1 5 6 12 13 16 20 24 23 27 28 21 4 18 20 14 13 12 9 7 7 8 9 9 10 10 12 13 14 15 15 17 17 17 18 18 20 20
2 2 6 4 4 4 2 6 5 5 2 6 4 9 14 12 13 15 18 17 12 23 28 19 20 16 17 15 15 13 10 8 10 13 13 13 13 13 15 15 15 15 16 16 18 19 20 21 22
2 4 5 5 4 1 3 6 3 4 5 7 1 6 10 10 14 10 12 14 10 11 19 27 22 15 15 15 16 17 15 12 12 14 14 15 16 15 16 17 17 17 18 18 20 23 23 25 27
Wind_Direction
78 53 67 71 66 66 3 317 76 173 50 86 116 101 93 46 78 182 143 132 116 68 47 54 50 30 6 356 343 339 336 330 327 328 328 333 334 341 342 340 337 330 325 319 318 307 296 285 284
89 63 61 58 71 48 317 336 47 79 125 100 83 78 65 54 93 129 143 125 107 55 66 56 47 40 25 15 6 360 347 335 330 332 330 330 337 345 341 337 328 321 316 310 308 307 290 290 279
72 84 65 78 81 101 198 14 133 126 140 134 101 61 58 99 112 114 119 115 82 71 65 42 32 24 18 26 18 2 345 333 326 325 322 327 333 346 342 347 349 349 333 312 304 311 303 307 309
31 75 75 72 49 254 187 194 128 114 93 106 106 70 82 106 103 119 104 105 107 106 73 37 8 6 348 15 3 1 346 336 320 310 317 329 332 338 352 6 17 22 29 38 31 4 328 308 301
36 57 56 50 10 5 44 93 294 76 83 97 113 121 93 120 131 122 122 122 139 147 130 31 357 357 355 3 6 7 3 359 333 313 307 310 326 344 7 24 27 21 30 42 33 27 23 355 326
44 51 62 45 8 337 20 101 57 112 115 109 114 107 77 132 142 138 139 143 163 194 194 234 13 32 19 17 17 16 9 12 353 328 314 322 323 326 4 32 28 9 10 26 9 13 14 14 13
88 74 113 158 27 309 181 229 251 207 140 117 131 78 116 149 147 139 134 128 177 309 321 309 318 1 341 357 2 8 9 2 357 342 300 327 331 336 0 1 6 347 349 2 350 334 326 333 328
109 84 105 196 176 239 193 184 190 344 26 124 122 142 152 143 157 144 141 334 321 326 329 324 306 204 232 284 339 357 7 356 356 354 302 298 309 312 308 322 331 326 328 326 319 308 317 324 281
108 70 169 192 162 221 175 132 237 231 140 58 73 146 151 147 152 156 181 325 341 329 327 324 288 223 205 269 292 4 359 355 350 355 313 303 302 285 286 301 299 308 317 318 315 310 315 318 282
84 106 209 188 171 172 167 175 153 142 130 103 108 131 149 154 162 166 116 357 347 331 319 308 283 209 231 239 308 4 2 348 353 15 358 333 325 280 291 299 304 307 312 307 311 324 328 312 259
149 180 183 197 167 160 158 189 168 150 210 163 151 158 168 180 195 275 345 332 326 319 302 289 229 205 211 212 245 330 344 338 348 2 7 354 337 282 298 304 316 327 316 315 311 310 316 307 275
121 229 179 162 179 162 168 175 156 154 195 177 170 170 173 185 205 310 312 313 316 321 311 291 224 223 220 236 270 298 313 320 344 360 5 357 346 329 319 325 333 331 323 323 320 325 318 273 269
56 159 196 177 165 180 166 188 170 213 172 173 169 172 183 202 239 266 284 309 323 323 313 297 212 227 239 246 269 280 286 314 342 359 3 355 345 327 332 328 328 320 326 331 332 332 327 288 264
188 113 123 178 183 166 173 186 173 197 177 174 177 189 209 235 241 235 252 281 322 319 304 276 221 217 227 243 259 257 272 317 348 0 0 355 345 335 333 332 335 332 331 340 337 332 325 317 283
74 62 30 163 160 172 153 300 229 176 178 178 186 204 224 235 234 236 251 269 295 316 317 307 269 225 212 214 240 243 275 326 4 3 359 357 350 349 335 332 338 343 344 340 335 332 323 319 303
101 66 157 213 188 179 159 251 208 175 178 187 194 209 224 231 237 232 240 250 278 306 317 302 267 240 211 182 173 208 286 353 353 342 357 360 4 1 356 351 357 357 350 348 349 351 345 328 313
36 218 237 219 216 151 207 260 193 184 190 197 202 209 222 227 228 230 235 243 266 294 313 306 272 231 210 200 191 216 249 279 298 323 347 356 7 12 10 8 2 359 357 1 3 3 3 360 352
241 232 242 217 198 175 204 253 180 191 198 202 209 215 219 226 235 230 233 237 248 274 284 287 266 229 224 231 222 220 230 250 271 297 332 351 2 11 11 14 5 0 6 14 16 14 9 10 30
169 160 263 236 214 161 220 242 220 200 211 209 208 217 220 228 235 231 231 237 242 257 260 275 268 244 238 234 222 228 230 249 270 277 315 343 351 358 4 8 4 0 6 16 22 19 19 29 73
161 198 254 310 40 112 250 311 311 198 212 209 217 224 227 231 232 232 230 236 239 249 255 264 287 270 252 242 235 234 234 249 267 267 292 319 328 336 350 1 2 357 3 15 24 30 28 22 26
210 185 228 179 87 56 341 312 330 315 222 221 227 244 237 238 237 232 232 235 236 235 246 267 288 293 261 240 238 226 235 241 259 260 284 298 311 316 337 353 359 353 0 14 23 28 27 32 26
240 198 161 148 108 248 32 287 289 321 299 250 240 235 238 242 237 239 234 233 232 233 229 253 259 281 276 247 240 237 246 251 264 260 282 289 303 299 321 344 355 349 351 4 12 15 20 26 22
272 69 56 91 121 79 357 55 274 54 274 246 252 255 253 250 253 242 239 237 231 226 226 244 243 253 274 256 248 247 247 247 253 261 276 278 288 283 301 332 350 350 341 359 11 3 4 8 13
153 76 54 47 59 26 282 106 286 265 238 301 286 306 308 267 251 248 245 239 228 218 226 232 235 240 259 256 247 254 256 264 259 256 275 279 295 287 293 321 336 348 345 339 358 9 353 349 352
51 66 5 7 1 226 28 45 242 259 242 236 319 318 323 333 263 244 239 234 227 218 230 234 237 238 246 260 268 262 267 270 272 254 277 281 293 300 301 309 318 326 335 335 328 338 348 343 329
70 128 138 248 252 272 6 248 269 240 329 42 29 340 337 333 299 255 244 227 224 212 224 259 250 245 245 275 296 279 293 307 303 290 286 296 293 305 314 307 309 318 313 329 323 315 317 323 332
170 73 164 108 16 38 261 289 314 8 28 44 14 20 347 339 308 267 245 227 226 203 230 295 252 253 260 294 303 315 322 330 337 326 313 317 308 309 308 316 300 304 309 299 299 301 304 304 307
129 123 41 21 351 305 294 288 241 303 189 15 22 350 329 314 297 266 241 235 232 216 223 288 283 256 260 279 292 299 313 330 339 343 336 323 322 313 308 313 305 301 300 301 299 298 299 295 295
344 36 56 108 126 171 275 277 212 272 220 199 265 319 324 321 319 278 253 230 238 215 220 228 262 280 256 268 294 284 287 312 323 335 335 331 324 321 314 315 311 304 300 298 295 296 299 295 296
160 157 135 123 240 222 153 276 18 99 118 169 268 320 340 345 353 299 231 220 266 256 232 235 251 280 263 267 289 279 279 293 311 326 331 331 326 321 317 314 312 312 308 303 298 299 298 295 295